Preview of NWS' New Version of Forecast
This preview is not operational and should not be used for support decisions.

Regional Weather Roundup (RWR)

Issued by National Weather Service (NWS)

                            
000
ASCA42 TJSJ 181410
RWRPR 
PUERTO RICO/U.S. VIRGIN ISLANDS HOURLY WEATHER ROUNDUP
NATIONAL WEATHER SERVICE SAN JUAN PR
1000 AM AST SAT MAY 18 2019

PRZ001>002-007>008-010-181500-
PUERTO RICO
  
CITY           SKY/WX    TMP DP  RH WIND       PRES   REMARKS
SAN JUAN LMM   MOSUNNY   84  72  65 E12       30.01R                  
AGUADILLA      SUNNY     84  72  65 E8        30.02R                  
CEIBA          SUNNY     86  72  62 E12       30.03R HX  92           
$$

VIZ001>002-181500-
U.S. VIRGIN ISLANDS
  
CITY           SKY/WX    TMP DP  RH WIND       PRES   REMARKS
CHARLOTTE AMA  MOSUNNY   84  72  65 SE15      30.01R                  
CHRISTIANSTED  MOSUNNY   84  72  65 E15       30.01S                  
$$

HOURLY WEATHER ROUNDUP FOR THE NEWS MEDIA
  
CITY           SKY/WX    TMP DP  RH WIND       PRES   REMARKS
ORLANDO        FAIR      79  62  56 E5        30.07R                  
NEW YORK       PTSUNNY   64  45  49 N8        30.01R                  
NEWARK         FAIR      67  40  37 N13G21    30.01R                  
CHICAGO        PTSUNNY   57  50  77 S7        29.81F                  
HARTFORD       FAIR      63  42  46 MISG      29.93R                  
BOSTON         FAIR      64  38  38 NW14G21   29.93R                  
DALLAS         CLOUDY    76  71  85 SE15      29.73S                  
PHILADELPHIA   PTSUNNY   67  43  41 VRB6      30.02R                  
LOS ANGELES    PTSUNNY   58  51  78 VRB5      29.95R                  
WASHINGTON DC  PTSUNNY   75  64  68 N5        30.01R